Location: Harwich
(41.7160°N, 69.9939°W)
Time: 14:32:18
(UTC+01:00)

A-11 Canister half - Pass Details

Date: 29 November 2023
Orbit: 1526 x 1682 km, 47.3° (Epoch: 01 March)

Event Time Altitude Azimuth Distance (km) Brightness Sun altitude
Rises 01:26:11 0° 216° (SW) 4,919 12.0 -35.8°
Reaches altitude 10° 01:29:27 10° 212° (SSW) 3,935 11.4 -36.4°
Enters shadow 01:36:26 43° 180° (S) 2,216 9.6 -37.7°
Maximum altitude 01:39:07 52° 139° (SE) 1,998 - -38.2°
Drops below altitude 10° 01:48:40 10° 67° (ENE) 3,893 - -40.0°
Sets 01:51:52 0° 63° (ENE) 4,863 - -40.6°
